Starlink 11477

operational
NORAD ID: 62471 Int'l Des: 2024-254 Owner: SPXS Country: US Constellation: starlink
LEOCIRCULAR

关于 Starlink 11477

正在加载描述...

实时位置

正在加载3D地球...

即将过境

高度历史

Altitude vs Time

uPlot chart will show altitude changes over time

两行轨道根数

1 62471U 24254K 25346.15313211 .00330329 00000-0 24614-2 0 9993
2 62471 42.9989 30.6529 0001551 235.7578 124.3143 15.70988961 55627
Epoch: Dec 12, 2025 • Age: 21 hours

当前状态

高度 354.4 km
速度 7.70 km/s
星下点 17.51°N, 54.21°W
发射日期 Dec 31, 2024
运行时间 0.9 years
类型 internet

技术详情

分类 Payload
质量 960.00 kg
干质量 910.00 kg
总质量 960.00 kg
长度 0.30 m
直径 4.10 m
跨度 29.00 m
形状 Box + pan
制造商 SPXS
平台类型 Starlink V2MD
阶段状态 In Orbit
所有者/国家 SPXS/US

大型星座

Loading constellations...